Location: Castillon
(43.0896°N, 0.2156°E)
Time: 10:06:41
(UTC+00:00)

Cosmos 1544 Rocket - Pass Details

Date: 26 October 2021
Orbit: 603 x 631 km, 82.5° (Epoch: 08 December)

Event Time Altitude Azimuth Distance (km) Brightness Sun altitude
Rises 03:43:26 0° 9° (N) 2,906 7.3 -30.2°
Reaches altitude 10° 03:46:33 10° 32° (NNE) 1,988 6.6 -29.7°
Maximum altitude 03:49:10 15° 69° (ENE) 1,653 6.5 -29.2°
Drops below altitude 10° 03:51:45 10° 105° (ESE) 1,968 6.9 -28.7°
Sets 03:54:47 0° 129° (SE) 2,861 7.5 -28.2°
